Date String (YYYY-MM-DD hh:mm:ss) UTC,Instrument flags,absolute air pressure of the measurement (hPa),sample flow rate (lpm),inlet stack bypass flow (lpm),air temperature of the measurement (°C),ambient temperature measured by the external sensor (°C),aerosol sample conditioner tube jacket temperature (°C),OPC LED temperature (°C),internal box temperature (°C),relative humidity of the measurement (%),span deviation,mass concentration of particles derived from Lorenz-Mie calculation of OPC scattering (μg/m³),mass concentration of particles derived from Lorenz-Mie calculation of OPC scattering (μg/m³),mass concentration of particles derived from Lorenz-Mie calculation of OPC scattering (μg/m³)
DateTimeUTC,F1_M11,P_M11,Q1_M11,Q2_M11,T1_M11,T2_M11,T3_M11,T4_M11,T5_M11,U1_M11,ZSPAN_M11,X2_M11,X0_M11,X1_M11
2023-11-25 05:00:00,SystemResetWarning,0829.1,5.01,000.00,019.3,019.0,000.0,027.5,020.5,11.9,0000.0,0005.14,0007.74,0004.77
2023-11-25 05:01:00,SystemResetWarning,0829.1,5.00,000.00,019.3,018.8,000.0,027.5,020.5,11.9,0000.0,0005.16,0007.82,0004.79
2023-11-25 05:02:00,SystemResetWarning,0829.1,5.00,000.00,019.2,018.7,000.0,027.5,020.4,11.9,0000.0,0005.21,0007.94,0004.82
2023-11-25 05:03:00,SystemResetWarning,0829.2,4.99,000.00,019.2,018.6,000.0,027.5,020.4,12.0,0000.0,0005.29,0008.05,0004.87
2023-11-25 05:04:00,SystemResetWarning,0829.2,4.99,000.00,019.2,018.6,000.0,027.5,020.4,12.0,0000.0,0005.34,0008.14,0004.91
2023-11-25 05:05:00,SystemResetWarning,0829.2,5.01,000.00,019.2,018.5,000.0,027.5,020.4,12.0,0000.0,0005.38,0008.19,0004.94
2023-11-25 05:06:00,SystemResetWarning,0829.2,5.00,000.00,019.2,018.5,000.0,027.5,020.3,12.0,0000.0,0005.42,0008.22,0004.99
2023-11-25 05:07:00,SystemResetWarning,0829.3,5.01,000.00,019.2,018.4,000.0,027.5,020.3,12.0,0000.0,0005.48,0008.31,0005.05
2023-11-25 05:08:00,SystemResetWarning,0829.4,5.01,000.00,019.2,018.4,000.0,027.5,020.3,12.0,0000.0,0005.54,0008.29,0005.10
2023-11-25 05:09:00,SystemResetWarning,0829.4,5.00,000.00,019.1,018.3,000.0,027.5,020.3,12.0,0000.0,0005.58,0008.35,0005.14
2023-11-25 05:10:00,SystemResetWarning,0829.4,4.99,000.00,019.1,018.3,000.0,027.5,020.3,12.0,0000.0,0005.62,0008.37,0005.19
2023-11-25 05:11:00,SystemResetWarning,0829.4,4.99,000.00,019.1,018.3,000.0,027.4,020.3,12.0,0000.0,0005.65,0008.38,0005.24
2023-11-25 05:12:00,SystemResetWarning,0829.4,5.00,000.00,019.1,018.3,000.0,027.4,020.2,12.0,0000.0,0005.68,0008.34,0005.29
2023-11-25 05:13:00,SystemResetWarning,0829.4,5.00,000.00,019.1,018.2,000.0,027.4,020.2,12.0,0000.0,0005.69,0008.29,0005.31
2023-11-25 05:14:00,SystemResetWarning,0829.4,5.01,000.00,019.1,018.2,000.0,027.4,020.3,12.0,0000.0,0005.69,0008.22,0005.34
2023-11-25 05:15:00,SystemResetWarning,0829.4,5.00,000.00,019.2,018.8,000.0,027.4,020.9,12.0,0000.0,0005.73,0008.24,0005.37
2023-11-25 05:16:00,SystemResetWarning,0829.5,4.99,000.00,019.3,019.5,000.0,027.5,021.2,11.9,0000.0,0005.76,0008.19,0005.40
2023-11-25 05:17:00,SystemResetWarning,0829.4,4.99,000.00,019.4,019.5,000.0,027.5,021.0,11.8,0000.0,0005.81,0008.28,0005.42
2023-11-25 05:18:00,SystemResetWarning,0829.3,5.00,000.00,019.4,019.3,000.0,027.5,020.9,11.8,0000.0,0005.81,0008.27,0005.42
2023-11-25 05:19:00,SystemResetWarning,0829.4,5.00,000.00,019.4,019.2,000.0,027.5,020.7,11.8,0000.0,0005.82,0008.42,0005.41
2023-11-25 05:20:00,SystemResetWarning,0829.4,5.00,000.00,019.3,019.0,000.0,027.6,020.6,11.8,0000.0,0005.82,0008.71,0005.40
2023-11-25 05:21:00,SystemResetWarning,0829.4,5.01,000.00,019.3,018.9,000.0,027.6,020.5,11.8,0000.0,0005.82,0008.82,0005.38
2023-11-25 05:22:00,SystemResetWarning,0829.4,5.01,000.00,019.3,018.8,000.0,027.6,020.5,11.8,0000.0,0005.80,0008.95,0005.35
2023-11-25 05:23:00,SystemResetWarning,0829.5,4.99,000.00,019.3,018.7,000.0,027.6,020.5,11.8,0000.0,0005.77,0008.93,0005.32
2023-11-25 05:24:00,SystemResetWarning,0829.6,4.99,000.00,019.3,018.6,000.0,027.6,020.5,11.8,0000.0,0005.74,0008.93,0005.27
2023-11-25 05:25:00,SystemResetWarning,0829.6,5.00,000.00,019.2,018.6,000.0,027.5,020.4,11.9,0000.0,0005.69,0008.90,0005.23
2023-11-25 05:26:00,SystemResetWarning,0829.7,5.01,000.00,019.2,018.5,000.0,027.5,020.4,11.9,0000.0,0005.64,0008.91,0005.17
2023-11-25 05:27:00,SystemResetWarning,0829.7,5.01,000.00,019.2,018.4,000.0,027.5,020.4,11.9,0000.0,0005.60,0008.91,0005.13
2023-11-25 05:28:00,SystemResetWarning,0829.6,4.98,000.00,019.2,018.4,000.0,027.5,020.4,11.9,0000.0,0005.53,0008.83,0005.08
2023-11-25 05:29:00,SystemResetWarning,0829.6,5.00,000.00,019.2,018.4,000.0,027.5,020.3,11.9,0000.0,0005.49,0008.77,0005.06
2023-11-25 05:30:00,SystemResetWarning,0829.5,5.01,000.00,019.2,018.3,000.0,027.5,020.3,11.9,0000.0,0005.41,0008.61,0005.01
2023-11-25 05:31:00,SystemResetWarning,0829.5,5.01,000.00,019.1,018.3,000.0,027.5,020.3,11.9,0000.0,0005.37,0008.20,0004.98
2023-11-25 05:32:00,SystemResetWarning,0829.4,5.00,000.00,019.1,018.2,000.0,027.5,020.2,11.9,0000.0,0005.35,0008.13,0004.95
2023-11-25 05:33:00,SystemResetWarning,0829.3,5.00,000.00,019.1,018.2,000.0,027.5,020.2,11.9,0000.0,0005.34,0007.98,0004.95
2023-11-25 05:34:00,SystemResetWarning,0829.3,5.00,000.00,019.1,018.2,000.0,027.5,020.2,11.9,0000.0,0005.39,0008.14,0004.96
2023-11-25 05:35:00,SystemResetWarning,0829.3,5.00,000.00,019.1,018.2,000.0,027.4,020.3,11.9,0000.0,0005.42,0008.25,0004.98
2023-11-25 05:36:00,SystemResetWarning,0829.4,5.00,000.00,019.2,018.5,000.0,027.4,020.7,11.9,0000.0,0005.44,0008.29,0004.99
2023-11-25 05:37:00,SystemResetWarning,0829.5,5.00,000.00,019.3,019.2,000.0,027.5,021.2,11.8,0000.0,0005.44,0008.27,0005.01
2023-11-25 05:38:00,SystemResetWarning,0829.4,5.00,000.00,019.4,019.4,000.0,027.5,021.1,11.7,0000.0,0005.44,0008.66,0005.01
2023-11-25 05:39:00,SystemResetWarning,0829.4,4.99,000.00,019.4,019.3,000.0,027.5,020.8,11.7,0000.0,0005.48,0008.94,0005.02
2023-11-25 05:40:00,SystemResetWarning,0829.3,4.99,000.00,019.4,019.2,000.0,027.5,020.7,11.7,0000.0,0005.49,0009.00,0005.01
2023-11-25 05:41:00,SystemResetWarning,0829.4,5.01,000.00,019.3,019.0,000.0,027.5,020.6,11.7,0000.0,0005.50,0009.03,0004.99
2023-11-25 05:42:00,SystemResetWarning,0829.4,5.01,000.00,019.3,018.9,000.0,027.5,020.6,11.7,0000.0,0005.47,0008.94,0004.99
2023-11-25 05:43:00,SystemResetWarning,0829.3,5.00,000.00,019.3,018.8,000.0,027.5,020.5,11.7,0000.0,0005.45,0009.44,0004.97
2023-11-25 05:44:00,SystemResetWarning,0829.4,4.99,000.00,019.3,018.7,000.0,027.6,020.5,11.7,0000.0,0005.42,0009.50,0004.95
2023-11-25 05:45:00,SystemResetWarning,0829.4,4.99,000.00,019.3,018.6,000.0,027.5,020.4,11.7,0000.0,0005.37,0009.38,0004.90
2023-11-25 05:46:00,SystemResetWarning,0829.3,5.00,000.00,019.2,018.5,000.0,027.5,020.4,11.7,0000.0,0005.27,0009.17,0004.85
2023-11-25 05:47:00,SystemResetWarning,0829.4,5.01,000.00,019.2,018.5,000.0,027.5,020.4,11.8,0000.0,0005.26,0009.13,0004.82
2023-11-25 05:48:00,SystemResetWarning,0829.3,5.01,000.00,019.2,018.4,000.0,027.5,020.4,11.8,0000.0,0005.28,0009.18,0004.80
2023-11-25 05:49:00,SystemResetWarning,0829.2,5.01,000.00,019.2,018.4,000.0,027.5,020.4,11.8,0000.0,0005.24,0009.15,0004.75
2023-11-25 05:50:00,SystemResetWarning,0829.2,5.00,000.00,019.2,018.4,000.0,027.5,020.3,11.8,0000.0,0005.19,0008.84,0004.72
2023-11-25 05:51:00,SystemResetWarning,0829.2,4.98,000.00,019.2,018.3,000.0,027.5,020.3,11.8,0000.0,0005.16,0009.03,0004.72
2023-11-25 05:52:00,SystemResetWarning,0829.2,4.99,000.00,019.1,018.3,000.0,027.5,020.3,11.8,0000.0,0005.14,0009.36,0004.72
2023-11-25 05:53:00,SystemResetWarning,0829.2,5.00,000.00,019.1,018.3,000.0,027.5,020.3,11.8,0000.0,0005.17,0009.51,0004.73
2023-11-25 05:54:00,SystemResetWarning,0829.2,5.01,000.00,019.1,018.2,000.0,027.5,020.3,11.8,0000.0,0005.17,0009.28,0004.74
2023-11-25 05:55:00,SystemResetWarning,0829.2,5.00,000.00,019.1,018.2,000.0,027.5,020.3,11.8,0000.0,0005.18,0009.61,0004.76
2023-11-25 05:56:00,SystemResetWarning,0829.3,5.00,000.00,019.1,018.2,000.0,027.5,020.3,11.8,0000.0,0005.20,0009.66,0004.78
2023-11-25 05:57:00,SystemResetWarning,0829.2,4.99,000.00,019.1,018.2,000.0,027.4,020.4,11.8,0000.0,0005.24,0009.71,0004.81
2023-11-25 05:58:00,SystemResetWarning,0829.2,5.01,000.00,019.2,018.6,000.0,027.4,020.8,11.8,0000.0,0005.25,0009.73,0004.83
2023-11-25 05:59:00,SystemResetWarning,0829.2,4.99,000.00,019.3,019.3,000.0,027.5,021.2,11.7,0000.0,0005.26,0009.81,0004.85
